星链-30053 (STARLINK-30053 )

导读

STARLINK-30053是美国太空探索技术公司SpaceX星链(Starlink)星座中的卫星,于2023年5月19日发射。星链项目旨在构建全球卫星互联网星座,为全球提供宽带互联网接入服务,该卫星入轨后参与星座组网,进一步扩充星链星座规模,助力实现全球覆盖的卫星互联网络布局。

基本信息
目录编号:
56700
目录名称:
STARLINK-30053
国际标识:
2023-067N
轨道中心:
EARTH
卫星名称:
星链-30053
卫星全名:
星链-30053 (STARLINK-30053 )
卫星状态:
在轨 (已飞行1126 天)
发射日期:
2023-05-19 UTC
国别 :
美国 (US)
星等 :
--
轨道信息
数据来源 国际轨道数据 AOE轨道数据
星历时间 2026-06-18T10:02:36+0800
12小时前
查看轨道信息
2026-06-14T23:00:00+0800
3天前
查看轨道信息
半长轴 6861.203km 6861.175km
偏心率 0.0000691 0.0000628
轨道倾角 43.002° 43.005°
近地点辐角 240.313° 164.159°
升交点赤经 64.136° 83.680°
平近点角 119.766° 225.378°
近地点 482.591km 482.607km
远地点 483.541km 483.469km
周期 94.267分钟 94.267分钟
每日圈数 15.275745 15.275838
详细信息
固有亮度:
5
最大亮度:
0.3
卫星平台:
Starlink v2.0 mini
覆盖范围:
全球
运营商:
太空探索技术公司
运营商所在国:
美国
制造商(研发单位):
太空探索技术公司
制造商所在国:
美国
使用方式:
暂无
卫星简介
星链(Starlink)计划是由太空探索技术公司(SpaceX)提出的一个巨型低轨卫星互联网星座项目,计划在2019年至2024年间在太空搭建由约1.2万颗卫星组成的“星链”网络,其中1584颗将部署在地球上空550千米处的近地轨道,并从2020年开始工作。该卫星仍在工作。
2D轨道图
3D轨道图
轨道高度分析图
轨道倾角分析图
轨道综合分析图
查看轨道综合分析图